Токтогульское водохранилище

Киргизия     41°44′31″N   72°51′08″E
темп.,
°C
ветер,
м/с
пор.,
м/с
влажн.,
%
обл.,
%
осадки,
мм/ч
давл.,
гПа
погр.,
м
12 мая, ср
ср1200:00+14юз447288 0.8 101650
03:00+14с116796 0.0 101512
06:00+13зсз116686 0.0 101511
09:00+15всв016375 0.1 1016311
12:00+16ю225477 0.8 1014750
15:00+17ю115198 0.8 1013970
18:00+14зюз6771100 1.9 1015150
21:00+14ссз016886 0.1 101611
13 мая, чт
чт1300:00+12з226793 0.5 101622
03:00+11сз126313 0.0 101670
06:00+10зсз22620 0.0 101696
09:00+13св115721 0.0 1016260
12:00+14вюв21530 0.0 1014444
15:00+17юв22380 0.0 1012453
18:00+18юв11350 0.0 1011299
21:00+15сз224817 0.0 101323
14 мая, пт
пт1400:00+13зсз22540 0.0 101518
03:00+11сз12500 0.0 101581
06:00+11зсз11500 0.0 1016104
09:00+13всв11480 0.0 1017254
12:00+15вюв21430 0.0 1015355
15:00+17юв21320 0.0 1013502
18:00+19ююв11360 0.0 1011349
21:00+15сз22530 0.0 101424
15 мая, сб
сб1500:00+13сз12540 0.0 101516
03:00+11сз11490 0.0 1016100
06:00+10ссз11490 0.0 1017165
09:00+12всв11480 0.0 1018257
12:00+14вюв11390 0.0 1016358
15:00+17юв21310 0.0 1013372
18:00+18ююв11340 0.0 1012190
21:00+16зсз12440 0.0 101313
16 мая, вс
вс1600:00+14зсз22411 0.0 101414
03:00+12зсз224016 0.0 101423
06:00+12зсз2241100 0.0 101547
09:00+14св113617 0.0 1016206
12:00+15вюв11340 0.0 1015374
15:00+18вюв21300 0.0 1012339
18:00+19ю113790 0.0 1011169
21:00+16зюз125172 0.0 101219